Simultaneous Nadir Overpasses (SNOs) Predictions

Prediction of SNOs between AQUA and GOES-15 Satellite Orbit:

Table of predicted SNOs for the next 14.0 days since TLE Epoch: 7/19/2014
Index Date Time (AQUA) AQUA Lat,Lon GOES-15 Lat,Lon Distance(km) Time Diff (sec)
1 07/19/2014 10:20:03 -1.02,-131.22 -0.16,-135.24 456.84 80
2 07/19/2014 22:41:26 -0.08,-136.42 0.18,-135.26 131.31 80
3 07/21/2014 22:29:13 0.57,-133.46 0.18,-135.31 211.06 80
4 07/22/2014 10:50:28 0.53,-138.61 -0.19,-135.32 374.84 80
5 07/24/2014 10:38:15 -0.13,-135.65 -0.20,-135.36 33.01 80
6 07/26/2014 10:26:02 -0.78,-132.70 -0.20,-135.41 308.49 80
7 07/26/2014 22:47:26 -0.30,-137.89 0.21,-135.42 280.04 80
8 07/28/2014 22:35:12 0.31,-134.92 0.21,-135.46 61.12 80
9 07/30/2014 22:22:59 0.98,-131.97 0.21,-135.50 401.83 80
10 07/31/2014 10:44:14 0.11,-137.12 -0.22,-135.50 184.49 80




NCC Satellite Simultaneous Nadir Overpasses (SNOs) Prediction Service
